Location: Cold Norton
(51.6667°N, 0.6667°E)
Time: 06:49:03
(UTC+00:00)

Cosmos 1763 Rocket - Pass Details

Date: 18 November 2025
Orbit: 728 x 774 km, 74.0° (Epoch: 10 December)

Event Time Altitude Azimuth Distance (km) Brightness Sun altitude
Rises 16:44:13 0° 336° (NNW) 3,246 6.8 -6.5°
Reaches altitude 10° 16:46:39 10° 340° (NNW) 2,309 6.0 -6.8°
Maximum altitude 16:51:50 63° 61° (ENE) 849 3.5 -7.6°
Drops below altitude 10° 16:56:56 10° 143° (SE) 2,264 5.8 -8.3°
Sets 16:59:18 0° 146° (SSE) 3,177 6.6 -8.7°
